CW3071 Weather Reports


time (UTC)temp
F
wind
direction
speed
knots
gust
knots
rain 1hr
in
rain 24hr
in
rain mn
in
humidity
%
barometer
mb
20260901070104 62 239 0.0 1.7 0.00 0.00 0.00 35 1018.1
20260901064602 62 239 0.9 1.7 0.00 0.00 0.00 34 1018.3
20260901063103 64 239 0.0 1.7 0.00 0.00 0.00 32 1018.1
20260901061615 65 0 0.0 1.7 0.00 0.00 0.00 31 1018.1
20260901060105 66 0 0.0 1.7 0.00 0.00 0.00 30 1018.2
20260901054614 67 239 0.0 2.6 0.00 0.00 0.00 28 1018.4
20260901053124 68 0 0.0 2.6 0.00 0.00 0.00 26 1018.5
20260901051603 69 0 0.9 2.6 0.00 0.00 0.00 24 1018.6
20260901050108 69 210 0.0 2.6 0.00 0.00 0.00 24 1018.4
20260901044559 69 0 0.0 1.7 0.00 0.00 0.00 24 1018.5
20260901043103 70 265 0.0 2.6 0.00 0.00 0.00 22 1018.3
20260901041608 71 186 0.0 3.5 0.00 0.00 0.00 21 1018.4
20260901040138 72 84 3.5 10.4 0.00 0.00 0.00 20 1018.3
20260901034601 70 0 0.9 5.2 0.00 0.00 0.00 21 1018.3
20260901033121 70 0 0.0 0.9 0.00 0.00 0.00 21 1018.4
20260901031611 71 0 0.0 1.7 0.00 0.00 0.00 23 1018.4
20260901030105 73 80 2.6 5.2 0.00 0.00 0.00 20 1018.5
20260901024601 74 72 1.7 6.1 0.00 0.00 0.00 19 1018.2
20260901023102 74 0 0.0 1.7 0.00 0.00 0.00 19 1017.9
20260901021602 74 72 0.0 3.5 0.00 0.00 0.00 19 1017.7
20260901014602 76 0 0.0 1.7 0.00 0.00 0.00 19 1017.5
20260901013107 77 313 0.9 2.6 0.00 0.00 0.00 16 1017.5
20260901011602 79 0 0.0 1.7 0.00 0.00 0.00 16 1017.4
20260901010100 80 313 0.0 3.5 0.00 0.00 0.00 15 1017.3
20260901004603 81 292 2.6 10.4 0.00 0.00 0.00 13 1017.3
20260901003107 82 246 1.7 6.1 0.00 0.00 0.00 12 1017.1
20260901001608 83 232 2.6 7.0 0.00 0.00 0.00 10 1017.0
20260901000105 83 255 2.6 8.7 0.00 0.00 0.00 11 1016.8
20260831234604 83 224 3.5 9.6 0.00 0.00 0.00 10 1016.8
20260831233104 84 237 1.7 7.8 0.00 0.00 0.00 10 1016.8
20260831231606 84 0 4.3 8.7 0.00 0.00 0.00 9 1016.8
20260831230142 85 226 4.3 11.3 0.00 0.00 0.00 10 1016.8
20260831224614 84 173 5.2 11.3 0.00 0.00 0.00 9 1016.8
20260831223104 85 224 4.3 12.2 0.00 0.00 0.00 10 1016.9
20260831221628 84 222 4.3 13.9 0.00 0.00 0.00 10 1016.9
20260831220104 85 244 5.2 13.0 0.00 0.00 0.00 10 1017.0
20260831214605 84 205 4.3 12.2 0.00 0.00 0.00 10 1017.3
20260831213104 84 301 5.2 11.3 0.00 0.00 0.00 10 1017.4
20260831211616 84 278 3.5 13.9 0.00 0.00 0.00 11 1017.7
20260831204601 83 269 6.1 14.8 0.00 0.00 0.00 11 1018.3
20260831203058 83 251 6.1 15.6 0.00 0.00 0.00 14 1018.3
20260831201608 82 166 2.6 14.8 0.00 0.00 0.00 15 1018.4
20260831200106 81 272 4.3 13.9 0.00 0.00 0.00 13 1018.5
20260831194702 81 263 6.1 13.9 0.00 0.00 0.00 14 1018.6
20260831193104 80 198 4.3 13.9 0.00 0.00 0.00 15 1018.8
20260831191608 80 201 6.1 13.9 0.00 0.00 0.00 15 1018.9
20260831190110 80 176 6.1 12.2 0.00 0.00 0.00 16 1019.0
20260831184617 78 211 0.9 7.0 0.00 0.00 0.00 16 1019.2
20260831183103 78 257 2.6 7.0 0.00 0.00 0.00 16 1019.3
20260831181604 76 24 0.9 6.1 0.00 0.00 0.00 17 1019.3
20260831180114 76 178 1.7 7.0 0.00 0.00 0.00 17 1019.6
20260831174604 75 217 1.7 7.8 0.00 0.00 0.00 18 1019.6
20260831173101 75 226 0.9 7.0 0.00 0.00 0.00 18 1019.8
20260831171606 74 192 0.0 8.7 0.00 0.00 0.00 19 1019.8
20260831170131 74 217 2.6 7.8 0.00 0.00 0.00 21 1019.8
20260831164601 73 194 2.6 11.3 0.00 0.00 0.00 20 1019.8
20260831163105 73 208 2.6 8.7 0.00 0.00 0.00 23 1019.9
20260831161616 72 254 3.5 8.7 0.00 0.00 0.00 24 1019.8
20260831160104 71 226 2.6 8.7 0.00 0.00 0.00 25 1019.7
20260831154636 69 182 1.7 8.7 0.00 0.00 0.00 29 1019.6
20260831153110 67 0 0.9 3.5 0.00 0.00 0.00 30 1019.7
20260831151606 65 183 1.7 5.2 0.00 0.00 0.00 31 1019.8
20260831150110 64 195 1.7 7.8 0.00 0.00 0.00 35 1019.8
20260831144601 62 189 1.7 6.1 0.00 0.00 0.00 43 1019.7
20260831143107 61 163 0.9 4.3 0.00 0.00 0.00 45 1019.6
20260831141602 59 139 0.0 2.6 0.00 0.00 0.00 50 1019.6
20260831134604 56 170 0.0 3.5 0.00 0.00 0.00 57 1019.4
20260831133106 55 107 0.9 5.2 0.00 0.00 0.00 59 1019.1
20260831131608 53 91 1.7 6.1 0.00 0.00 0.00 60 1019.0
20260831130105 51 350 1.7 3.5 0.00 0.00 0.00 64 1018.9
20260831124600 48 0 0.0 4.3 0.00 0.00 0.00 70 1018.9
20260831123105 49 350 0.9 3.5 0.00 0.00 0.00 71 1018.8
20260831121559 47 0 0.0 3.5 0.00 0.00 0.00 78 1018.6
20260831120112 47 350 0.0 2.6 0.00 0.00 0.00 82 1018.6
20260831114612 47 350 0.0 2.6 0.00 0.00 0.00 82 1018.4
20260831113104 47 0 0.0 1.7 0.00 0.00 0.00 83 1018.3
20260831111615 47 0 0.0 2.6 0.00 0.00 0.00 81 1018.2
20260831104601 49 0 0.0 2.6 0.00 0.00 0.00 79 1018.1
20260831103118 49 0 0.0 1.7 0.00 0.00 0.00 79 1018.1
20260831101605 49 0 0.0 0.9 0.00 0.00 0.00 80 1018.0
20260831100100 50 0 0.0 2.6 0.00 0.00 0.00 79 1017.8
20260831094602 50 0 0.0 0.9 0.00 0.00 0.00 78 1017.7
20260831093106 50 350 0.0 1.7 0.00 0.00 0.00 77 1017.6
20260831091614 51 350 1.7 3.5 0.00 0.00 0.00 76 1017.5
20260831090114 51 0 0.0 1.7 0.00 0.00 0.00 76 1017.3
20260831084600 52 0 0.0 3.5 0.00 0.00 0.00 76 1017.4
20260831083113 52 0 0.0 0.9 0.00 0.00 0.00 77 1017.4
20260831081602 52 0 0.0 0.9 0.00 0.00 0.00 77 1017.5
20260831080112 53 0 0.0 1.7 0.00 0.00 0.00 76 1017.4
20260831074611 53 0 0.0 1.7 0.00 0.00 0.00 75 1017.3
20260831073102 54 350 0.0 0.0 0.00 0.00 0.00 73 1017.3
20260831071603 54 0 0.0 1.7 0.00 0.00 0.00 72 1017.3